Regional Weather Roundup
Issued by NWS

Home | Current Version | Previous Version | Text Only | Print | Product List | Glossary On
Versions: 1 2 3 4 5 6 7 8 9 10 11 12 13 14 15 16 17 18 19 20 21 22 23 24 25 26 27 28 29 30 31 32 33 34 35 36 37 38 39 40 41 42 43 44 45 46 47 48 49 50
000
ASUS45 KTFX 070110
RWRMT
MONTANA REGIONAL WEATHER ROUNDUP
NATIONAL WEATHER SERVICE GREAT FALLS MT
700 PM MDT MON JUL 06 2015

NOTE: "FAIR" INDICATES FEW OR NO CLOUDS BELOW 12000 FEET WITH NO
SIGNIFICANT WEATHER AND/OR OBSTRUCTIONS TO VISIBILITY.

MTZ001>007-043-070200-
WEST OF THE DIVIDE

CITY           SKY/WX    TMP DP  RH WIND       PRES   REMARKS
KALISPELL      CLEAR     79  40  24 S7        30.02F
MISSOULA       SUNNY     83  26  12 N15G22    30.03F
BUTTE          MOSUNNY   78  40  25 NW12G21   30.12F
MULLAN PASS    PTSUNNY   72  37  28 VRB6      30.20F
DEER LODGE       N/A     79  34  19 NW14      30.12S
EUREKA           N/A     84  41  21 W8        29.99F
HAMILTON         N/A     81  46  30 N10       30.03S
LIBBY            N/A     84  43  23 NW3       29.98F
RONAN            N/A     79  45  29 CALM      30.09F
THOMPSON FALLS   N/A     89  41  18 NW1       30.01F
$$

MTZ008-052>055-070200-
SOUTHWEST MONTANA

CITY           SKY/WX    TMP DP  RH WIND       PRES   REMARKS
BOZEMAN        SUNNY     81  45  28 CALM      30.06F
DILLON         MOSUNNY   77  51  40 NE8       30.06F
W YELLOWSTONE  MOSUNNY   68  48  49 SW3       30.20F
THREE FORKS      N/A     81  49  32 N8        30.05F
TWIN BRIDGES     N/A     81  47  30 NW15      30.05F
$$

MTZ009-010-012-014-046-048-049-054-070200-
EAST SLOPES AND CENTRAL MONTANA

CITY           SKY/WX    TMP DP  RH WIND       PRES   REMARKS
CUT BANK       SUNNY     73  42  32 SE14      30.08F
GREAT FALLS    SUNNY     73  48  41 NE9       30.08F
MALMSTROM AFB  SUNNY     72  49  43 E7        30.09F
HELENA         SUNNY     81  47  30 VRB3      30.05F
CONRAD           N/A     70  55  58 E2        30.11F
$$

MTZ011-013-016-021-045-047-050-051-070200-
NORTH CENTRAL MONTANA

CITY           SKY/WX    TMP DP  RH WIND       PRES   REMARKS
HAVRE          SUNNY     74  46  36 VRB6      30.08F
LEWISTOWN      SUNNY     72  46  39 E3        30.14S
CHINOOK          N/A     73  46  38 E8        30.08F
FORT BENTON      N/A     75  48  38 E3        30.08F
$$

MTZ017>020-022>027-061-062-070200-
NORTHEAST MONTANA

CITY           SKY/WX    TMP DP  RH WIND       PRES   REMARKS
GLASGOW        SUNNY     73  42  32 S7        30.11F
JORDAN           N/A     74  44  34 E9        30.12F
SIDNEY         SUNNY     72  48  43 NE7       30.15F
WOLF POINT     SUNNY     74  45  35 E5        30.13F
MALTA            N/A     76  45  33 CALM      30.07F
PLENTYWOOD       N/A     66  48  52 E7        30.15F
POPLAR           N/A     72  48  43 E3        30.14F
$$

MTZ028>42-056>058-070200-
SOUTHCENTRAL AND SOUTHEAST MONTANA

CITY           SKY/WX    TMP DP  RH WIND       PRES   REMARKS
BAKER          PTSUNNY   70  46  42 NE5       30.17F
BILLINGS       MOSUNNY   73  46  38 E9        30.13F
LIVINGSTON     SUNNY     75  49  39 E17G23    30.09F
MILES CITY     SUNNY     74  45  35 CALM      30.12F
FORSYTH          N/A     73  45  35 E6        30.12F
LAUREL           N/A     73  46  38 NE7       30.10F
ROUNDUP          N/A     72  42  33 E1        30.04F
$$

REGIONAL REPORTS...DAKOTAS

CITY           SKY/WX    TMP DP  RH WIND       PRES   REMARKS
WILLISTON      SUNNY     70  47  43 NE9       30.16F
MINOT          SUNNY     65  45  48 N6        30.15F
DICKINSON      SUNNY     66  52  60 NE9       30.15F HAZE
BEACH          FAIR      66  50  55 NE7       30.17S
CROSBY         FAIR      66  46  48 SE3       30.17F
BISMARCK       PTSUNNY   66  52  60 N10       30.16R HAZE
GRAND FORKS    MOSUNNY   62  45  53 N13       30.12S
FARGO          MOSUNNY   64  48  56 N15G23    30.10S
BUFFALO SD       N/A     70  47  43 N8        30.11F
RAPID CITY     CLOUDY    68  54  60 N5        30.18S
$$

REGIONAL REPORTS...WYOMING/IDAHO/WASHINGTON

CITY           SKY/WX    TMP DP  RH WIND       PRES   REMARKS
GILLETTE       PTSUNNY   67  53  61 NE8       30.20F
SHERIDAN       MOSUNNY   66  54  65 E5        30.18F
BUFFALO WY     MOSUNNY   63  53  70 SE8       30.23F
CODY           PTSUNNY   66  48  52 S8        30.19S
YELLOWSTONE LA   N/A     65  49  56 E5        30.30F
IDAHO FALLS    MOSUNNY   77  49  37 S3        30.08F
SALMON         MOSUNNY   84  37  18 N12       29.96S
BOISE          MOSUNNY   92  46  20 W13       29.94F
SPOKANE        PTSUNNY   91  40  16 NE13      29.93F
$$

REGIONAL REPORTS...ALBERTA

CITY           SKY/WX    TMP DP  RH WIND       PRES   REMARKS
EDMONTON       MOSUNNY   73  45  35 N8        30.02S
CALGARY        PTSUNNY   70  46  43 S12       30.05S
LETHBRIDGE     CLOUDY    73  54  49 SE6       30.02F
MEDICINE HAT   PTSUNNY   75  39  27 SW5       30.04F
WATERTON GATE    N/A     73  45  35 SW8         N/A
CARDSTON         N/A     73  52  46 SE7         N/A
MILK RIVER       N/A     72  45  37 S10         N/A
ONEFOUR          N/A     72  39  30 SE9         N/A
$$

REGIONAL REPORTS...SASKATCHEWAN

CITY           SKY/WX    TMP DP  RH WIND       PRES   REMARKS
SWIFT CURRENT  SUNNY     70  46  43 MISG      30.11F
REGINA         MOSUNNY   68  45  42 W3        30.14F
SASKATOON      MOSUNNY   70  46  43 SW8       30.10F
CYPRESS HILLS    N/A     63  43  48 S8          N/A
VAL MARIE        N/A     72  39  30 S6          N/A
ROCKGLEN         N/A     66  46  48 E5          N/A
ASSINIBOIA       N/A     73  41  31 W2          N/A
$$


USA.gov is the U.S. government's official web portal to all federal, state and local government web resources and services.